GW5186 Weather Reports


time (UTC)temp
F
wind
direction
speed
knots
gust
knots
rain 1hr
in
rain 24hr
in
rain mn
in
humidity
%
barometer
mb
20260505140438 90 128 0.0 5.2 0.00 0.00 0.00 61 1018.3
20260505124852 85 129 1.7 3.5 0.00 0.00 0.00 72 1017.9
20260505124349 85 155 2.6 7.0 0.00 0.00 0.00 74 1018.0
20260505123845 84 199 1.7 2.6 0.00 0.00 0.00 75 1018.0
20260505123342 85 183 1.7 2.6 0.00 0.00 0.00 74 1018.0
20260505122837 85 196 1.7 5.2 0.00 0.00 0.00 75 1018.0
20260505122335 84 45 0.9 3.5 0.00 0.00 0.00 76 1017.9
20260505121832 84 146 1.7 3.5 0.00 0.00 0.00 76 1017.9
20260505121329 84 166 1.7 5.2 0.00 0.00 0.00 76 1017.8
20260505120825 84 180 1.7 3.5 0.00 0.00 0.00 77 1017.8
20260505120321 83 173 1.7 3.5 0.00 0.00 0.00 77 1017.9
20260505115819 83 172 0.9 2.6 0.00 0.00 0.00 78 1017.7
20260505115317 83 213 0.9 3.5 0.00 0.00 0.00 78 1017.5
20260505114815 82 190 0.9 1.7 0.00 0.00 0.00 79 1017.6
20260505114311 82 218 0.0 2.6 0.00 0.00 0.00 79 1017.5
20260505113808 82 222 0.0 3.5 0.00 0.00 0.00 81 1017.4
20260505113304 81 171 0.9 0.9 0.00 0.00 0.00 82 1017.4
20260505112800 81 249 0.9 2.6 0.00 0.00 0.00 83 1017.4
20260505112258 80 200 0.9 1.7 0.00 0.00 0.00 83 1017.6
20260505111758 80 198 0.9 1.7 0.00 0.00 0.00 84 1017.5
20260505111254 80 208 0.0 0.9 0.00 0.00 0.00 86 1017.5
20260505110750 79 192 0.0 1.7 0.00 0.00 0.00 88 1017.3
20260505110248 78 215 0.0 1.7 0.00 0.00 0.00 89 1017.3
20260505101722 75 232 0.0 0.0 0.00 0.00 0.00 90 1016.9
20260505101217 75 232 0.0 0.0 0.00 0.00 0.00 90 1016.8
20260505100714 75 232 0.0 0.0 0.00 0.00 0.00 90 1016.9
20260505100211 75 233 0.0 0.0 0.00 0.00 0.00 90 1016.7
20260505095706 75 233 0.0 0.0 0.00 0.00 0.00 90 1016.6
20260505095205 75 224 0.0 0.0 0.00 0.00 0.00 90 1016.6
20260505094700 75 220 0.0 0.0 0.00 0.00 0.00 89 1016.5
20260505094157 75 218 0.0 0.0 0.00 0.00 0.00 89 1016.5
20260505093653 75 216 0.0 0.0 0.00 0.00 0.00 89 1016.4
20260505093151 75 224 0.0 0.0 0.00 0.00 0.00 89 1016.6
20260505092647 75 226 0.0 0.0 0.00 0.00 0.00 89 1016.5
20260505092146 75 215 0.0 0.0 0.00 0.00 0.00 89 1016.5
20260505091643 75 227 0.0 0.0 0.00 0.00 0.00 89 1016.6
20260505091141 75 231 0.0 0.0 0.00 0.00 0.00 89 1016.5
20260505090638 75 217 0.0 0.0 0.00 0.00 0.00 89 1016.4
20260505090136 75 212 0.0 0.0 0.00 0.00 0.00 89 1016.4
20260505085633 75 240 0.0 0.0 0.00 0.00 0.00 89 1016.4
20260505085131 75 231 0.0 0.0 0.00 0.00 0.00 89 1016.3
20260505084629 75 216 0.0 0.0 0.00 0.00 0.00 89 1016.3
20260505084127 75 228 0.0 0.0 0.00 0.00 0.00 89 1016.1
20260505083624 74 241 0.0 0.0 0.00 0.00 0.00 89 1016.3
20260505083121 74 241 0.0 0.0 0.00 0.00 0.00 89 1016.3
20260505082617 74 241 0.0 0.0 0.00 0.00 0.00 89 1016.2
20260505082114 75 241 0.0 0.0 0.00 0.00 0.00 89 1016.1
20260505081610 75 241 0.0 0.0 0.00 0.00 0.00 89 1016.3
20260505081108 75 242 0.0 0.0 0.00 0.00 0.00 89 1016.2
20260505080603 75 243 0.0 0.0 0.00 0.00 0.00 89 1016.4
20260505080100 75 245 0.0 0.0 0.00 0.00 0.00 89 1016.4
20260505075556 75 240 0.0 0.0 0.00 0.00 0.00 89 1016.3
20260505075053 75 240 0.0 0.0 0.00 0.00 0.00 89 1016.3
20260505074550 75 240 0.0 0.0 0.00 0.00 0.00 89 1016.5
20260505074047 75 240 0.0 0.0 0.00 0.00 0.00 89 1016.3
20260505073544 75 240 0.0 0.0 0.00 0.00 0.00 89 1016.1
20260505073043 75 240 0.0 0.0 0.00 0.00 0.00 89 1016.1
20260505072538 75 239 0.0 0.0 0.00 0.00 0.00 88 1016.1
20260505072035 75 239 0.0 0.0 0.00 0.00 0.00 88 1016.0
20260505071535 75 239 0.0 0.0 0.00 0.00 0.00 88 1016.3
20260505071034 75 239 0.0 0.0 0.00 0.00 0.00 88 1016.1
20260505070531 75 239 0.0 0.0 0.00 0.00 0.00 88 1016.1
20260505070027 75 240 0.0 0.0 0.00 0.00 0.00 88 1016.0
20260505065523 76 240 0.0 0.0 0.00 0.00 0.00 87 1016.1
20260505065020 76 240 0.0 0.0 0.00 0.00 0.00 87 1016.3
20260505064517 76 241 0.0 0.0 0.00 0.00 0.00 87 1016.3
20260505064015 76 241 0.0 0.0 0.00 0.00 0.00 87 1016.5
20260505063512 76 241 0.0 0.0 0.00 0.00 0.00 87 1016.4
20260505063008 76 241 0.0 0.0 0.00 0.00 0.00 87 1016.4
20260505062505 76 241 0.0 0.0 0.00 0.00 0.00 86 1016.3
20260505062002 76 241 0.0 0.0 0.00 0.00 0.00 86 1016.6
20260505061500 76 241 0.0 0.0 0.00 0.00 0.00 86 1016.5
20260505060957 76 241 0.0 0.0 0.00 0.00 0.00 86 1016.4
20260505060454 76 241 0.0 0.0 0.00 0.00 0.00 86 1016.7
20260505055950 77 241 0.0 0.0 0.00 0.00 0.00 85 1016.5
20260505055446 77 233 0.0 0.0 0.00 0.00 0.00 85 1016.6
20260505054943 77 236 0.0 0.0 0.00 0.00 0.00 85 1016.7
20260505054441 77 234 0.0 0.0 0.00 0.00 0.00 85 1016.6
20260505053938 77 233 0.0 0.0 0.00 0.00 0.00 85 1016.8
20260505053435 77 231 0.0 0.0 0.00 0.00 0.00 85 1016.9
20260505052932 77 231 0.0 0.0 0.00 0.00 0.00 85 1016.8
20260505052429 77 231 0.0 0.0 0.00 0.00 0.00 84 1016.9
20260505051926 77 231 0.0 0.0 0.00 0.00 0.00 84 1016.8
20260505051423 77 233 0.0 0.0 0.00 0.00 0.00 84 1017.0
20260505050921 78 213 0.0 0.0 0.00 0.00 0.00 84 1017.0
20260505050419 78 212 0.0 0.0 0.00 0.00 0.00 84 1017.2
20260505041347 78 230 0.9 0.9 0.00 0.00 0.00 83 1017.6
20260505040844 79 205 0.0 0.0 0.00 0.00 0.00 83 1017.4
20260505040342 79 234 0.0 0.0 0.00 0.00 0.00 83 1017.5
20260505035838 79 226 0.0 0.0 0.00 0.00 0.00 83 1017.6
20260505035334 79 227 0.0 0.9 0.00 0.00 0.00 82 1017.6
20260505034832 79 219 0.0 1.7 0.00 0.00 0.00 82 1017.7
20260505034328 79 200 0.0 0.0 0.00 0.00 0.00 82 1017.7
20260505033825 79 221 0.0 0.9 0.00 0.00 0.00 81 1018.0
20260505033322 79 228 0.0 1.7 0.00 0.00 0.00 81 1017.7
20260505032820 80 218 0.0 0.9 0.00 0.00 0.00 81 1017.9
20260505032316 80 227 0.0 0.0 0.00 0.00 0.00 81 1017.8
20260505031814 80 214 0.0 0.0 0.00 0.00 0.00 80 1018.1
20260505031309 80 189 0.0 0.9 0.00 0.00 0.00 80 1017.8
20260505030807 80 234 0.9 1.7 0.00 0.00 0.00 80 1017.9
20260505030303 80 222 0.0 0.9 0.00 0.00 0.00 80 1017.9
20260505025758 80 233 0.0 0.0 0.00 0.00 0.00 80 1018.0
20260505025256 80 219 0.0 0.0 0.00 0.00 0.00 80 1018.0
20260505024754 80 215 0.0 0.0 0.00 0.00 0.00 80 1017.8
20260505024252 80 216 0.0 0.0 0.00 0.00 0.00 79 1017.9
20260505023749 80 213 0.0 0.9 0.00 0.00 0.00 79 1017.6
20260505023246 80 241 0.0 0.0 0.00 0.00 0.00 79 1017.9
20260505022743 80 238 0.0 0.0 0.00 0.00 0.00 79 1017.8
20260505022240 80 243 0.0 0.9 0.00 0.00 0.00 78 1017.8
20260505021737 80 234 0.0 0.0 0.00 0.00 0.00 78 1017.8
20260505021234 81 217 0.0 0.0 0.00 0.00 0.00 78 1017.7
20260505020729 81 228 0.0 0.0 0.00 0.00 0.00 78 1017.7
20260505020225 81 224 0.0 0.0 0.00 0.00 0.00 78 1017.6
20260505015723 81 238 0.0 0.0 0.00 0.00 0.00 77 1017.6
20260505015219 81 231 0.0 2.6 0.00 0.00 0.00 77 1017.5
20260505014716 81 237 0.0 0.9 0.00 0.00 0.00 77 1017.4
20260505014214 81 243 0.0 0.0 0.00 0.00 0.00 77 1017.5
20260505013710 81 248 0.9 1.7 0.00 0.00 0.00 77 1017.5
20260505013207 81 251 0.0 0.9 0.00 0.00 0.00 77 1017.4
20260505012706 81 254 0.0 0.0 0.00 0.00 0.00 77 1017.2
20260505012203 81 230 0.0 0.0 0.00 0.00 0.00 77 1017.2
20260505011658 81 244 0.0 0.0 0.00 0.00 0.00 76 1017.3
20260505011155 81 245 0.0 0.0 0.00 0.00 0.00 76 1016.8
20260505010650 81 206 0.0 1.7 0.00 0.00 0.00 76 1017.1
20260505010148 81 152 0.0 0.0 0.00 0.00 0.00 76 1016.9
20260505005644 82 264 0.9 2.6 0.00 0.00 0.00 75 1016.9
20260505005141 82 247 0.0 0.0 0.00 0.00 0.00 75 1016.9
20260505004638 82 238 0.0 0.0 0.00 0.00 0.00 75 1016.8
20260505004134 82 226 0.0 0.0 0.00 0.00 0.00 74 1016.7
20260505003632 82 215 0.0 0.0 0.00 0.00 0.00 74 1016.8
20260505003129 83 188 0.0 1.7 0.00 0.00 0.00 74 1016.6
20260505002625 83 244 0.0 0.9 0.00 0.00 0.00 73 1016.8
20260505002124 83 210 0.9 0.9 0.00 0.00 0.00 73 1016.7
20260505001620 83 215 0.9 2.6 0.00 0.00 0.00 72 1016.5
20260505001118 83 236 0.9 2.6 0.00 0.00 0.00 72 1016.5
20260505000615 84 224 0.0 1.7 0.00 0.00 0.00 72 1016.5
20260505000113 84 217 0.0 1.7 0.00 0.00 0.00 72 1016.5
20260504235609 84 197 0.0 2.6 0.00 0.00 0.00 72 1016.5
20260504235106 84 145 0.9 1.7 0.00 0.00 0.00 71 1016.2
20260504234603 84 214 0.9 1.7 0.00 0.00 0.00 72 1016.4
20260504234100 84 191 0.0 3.5 0.00 0.00 0.00 72 1016.3
20260504233555 84 245 0.0 2.6 0.00 0.00 0.00 71 1016.2
20260504233052 84 265 0.0 2.6 0.00 0.00 0.00 71 1016.3
20260504232549 84 211 0.0 3.5 0.00 0.00 0.00 71 1016.2
20260504232047 85 226 0.0 2.6 0.00 0.00 0.00 70 1016.3
20260504231543 85 168 1.7 2.6 0.00 0.00 0.00 70 1016.2
20260504231039 85 112 1.7 2.6 0.00 0.00 0.00 68 1016.2
20260504230535 85 177 0.9 2.6 0.00 0.00 0.00 68 1016.1
20260504230035 86 179 0.9 2.6 0.00 0.00 0.00 67 1015.9
20260504225531 86 214 0.0 1.7 0.00 0.00 0.00 67 1015.9
20260504225028 86 216 0.9 2.6 0.00 0.00 0.00 67 1015.7
20260504224525 86 248 0.0 1.7 0.00 0.00 0.00 66 1015.5
20260504224022 86 249 0.0 5.2 0.00 0.00 0.00 66 1015.7
20260504223519 86 115 1.7 3.5 0.00 0.00 0.00 65 1015.6
20260504223015 87 169 0.9 2.6 0.00 0.00 0.00 65 1015.4
20260504222512 87 88 1.7 3.5 0.00 0.00 0.00 65 1015.3
20260504222009 87 152 1.7 2.6 0.00 0.00 0.00 64 1015.3
20260504221506 87 242 0.0 0.9 0.00 0.00 0.00 64 1015.4
20260504221003 87 277 1.7 1.7 0.00 0.00 0.00 64 1015.1
20260504220459 87 191 1.7 3.5 0.00 0.00 0.00 63 1015.1
20260504215956 87 112 0.9 6.1 0.00 0.00 0.00 63 1015.1
20260504215453 88 195 0.0 1.7 0.00 0.00 0.00 62 1014.9
20260504214950 89 330 2.6 6.1 0.00 0.00 0.00 61 1015.0
20260504214446 88 182 0.9 2.6 0.00 0.00 0.00 60 1014.8
20260504213943 88 87 3.5 5.2 0.00 0.00 0.00 62 1014.8
20260504213439 88 198 1.7 2.6 0.00 0.00 0.00 62 1014.7
20260504212937 88 102 2.6 7.0 0.00 0.00 0.00 61 1014.5
20260504212432 89 190 0.0 0.9 0.00 0.00 0.00 61 1014.6
20260504211930 90 97 3.5 6.1 0.00 0.00 0.00 59 1014.3
20260504211426 91 228 1.7 6.1 0.00 0.00 0.00 58 1014.5
20260504210924 92 86 2.6 5.2 0.00 0.00 0.00 57 1014.6
20260504210421 91 196 0.9 1.7 0.00 0.00 0.00 58 1014.4
20260504205918 91 103 1.7 5.2 0.00 0.00 0.00 58 1014.4
20260504205415 92 248 1.7 7.0 0.00 0.00 0.00 57 1014.5
20260504204913 93 60 3.5 6.1 0.00 0.00 0.00 55 1014.4
20260504204411 93 187 0.9 3.5 0.00 0.00 0.00 57 1014.2
20260504203911 93 79 3.5 6.1 0.00 0.00 0.00 55 1014.4
20260504203407 93 183 1.7 5.2 0.00 0.00 0.00 56 1014.3
20260504202903 92 190 0.9 5.2 0.00 0.00 0.00 57 1014.3
20260504202400 90 174 0.9 2.6 0.00 0.00 0.00 64 1014.2
20260504201856 90 185 1.7 3.5 0.00 0.00 0.00 68 1014.1
20260504201354 91 256 2.6 6.1 0.00 0.00 0.00 66 1014.2
20260504200851 93 90 1.7 11.3 0.00 0.00 0.00 62 1014.4
20260504200348 93 214 0.9 2.6 0.00 0.00 0.00 55 1014.1
20260504195844 93 195 0.9 6.1 0.00 0.00 0.00 56 1014.2
20260504195340 94 283 2.6 7.0 0.00 0.00 0.00 53 1014.2
20260504194837 93 101 1.7 3.5 0.00 0.00 0.00 53 1014.3
20260504194333 93 123 2.6 6.1 0.00 0.00 0.00 54 1014.4
20260504193829 93 151 2.6 3.5 0.00 0.00 0.00 54 1014.5
20260504193327 91 213 1.7 3.5 0.00 0.00 0.00 57 1014.5
20260504192825 89 52 2.6 5.2 0.00 0.00 0.00 68 1014.2
20260504192323 89 144 1.7 5.2 0.00 0.00 0.00 68 1014.4
20260504191821 89 103 2.6 5.2 0.00 0.00 0.00 68 1014.4
20260504191318 90 123 3.5 7.0 0.00 0.00 0.00 67 1014.7
20260504190814 91 78 3.5 5.2 0.00 0.00 0.00 67 1014.6
20260504190310 90 162 3.5 6.1 0.00 0.00 0.00 66 1014.4
20260504185806 90 230 2.6 6.1 0.00 0.00 0.00 68 1014.6
20260504185304 90 143 1.7 7.0 0.00 0.00 0.00 67 1014.7
20260504184800 89 247 1.7 7.0 0.00 0.00 0.00 68 1014.7
20260504184255 90 53 5.2 7.8 0.00 0.00 0.00 66 1014.7
20260504183751 89 72 1.7 7.0 0.00 0.00 0.00 68 1014.9
20260504183248 90 47 2.6 9.6 0.00 0.00 0.00 67 1015.2
20260504182747 90 212 1.7 6.1 0.00 0.00 0.00 67 1015.2
20260504182243 90 138 3.5 7.8 0.00 0.00 0.00 68 1014.9
20260504181741 89 114 3.5 6.1 0.00 0.00 0.00 67 1015.2
20260504181238 90 93 3.5 7.0 0.00 0.00 0.00 68 1015.2
20260504180737 90 108 4.3 7.8 0.00 0.00 0.00 67 1015.4
20260504180236 90 182 0.9 6.1 0.00 0.00 0.00 67 1015.2
20260504175733 89 168 1.7 7.0 0.00 0.00 0.00 69 1015.3
20260504175229 89 82 1.7 7.8 0.00 0.00 0.00 68 1015.3
20260504174727 89 277 3.5 8.7 0.00 0.00 0.00 69 1015.5
20260504174225 89 212 3.5 9.6 0.00 0.00 0.00 68 1015.3
20260504173721 90 191 1.7 12.2 0.00 0.00 0.00 68 1015.5
20260504173218 90 110 4.3 6.1 0.00 0.00 0.00 66 1015.6
20260504172715 90 105 3.5 9.6 0.00 0.00 0.00 57 1015.8
20260504172211 89 208 1.7 7.0 0.00 0.00 0.00 67 1015.6
20260504171708 89 121 1.7 7.0 0.00 0.00 0.00 69 1015.8
20260504171205 90 41 2.6 8.7 0.00 0.00 0.00 67 1016.0
20260504170701 89 176 3.5 7.8 0.00 0.00 0.00 66 1016.0
20260504170159 90 126 2.6 7.0 0.00 0.00 0.00 66 1016.1
20260504160118 92 153 1.7 2.6 0.00 0.00 0.00 49 1017.1
20260504151045 90 181 0.9 7.0 0.00 0.00 0.00 58 1017.1
20260504150543 91 121 3.5 7.8 0.00 0.00 0.00 56 1017.2